Time,TemperatureF,DewpointF,PressureIn,WindDirection,WindDirectionDegrees,WindSpeedMPH,WindSpeedGustMPH,Humidity,HourlyPrecipIn,Conditions,Clouds,dailyrainin,SoftwareType,DateUTC
2013-04-24 00:01:00,26.1,22.5,30.06,NNW,339,0.0,0.0,86,0.00,,---,0.02,VWS V14.01,2013-04-24 05:01:00,
2013-04-24 00:06:00,26.0,22.4,30.06,NNW,339,0.0,0.0,86,0.00,,---,0.00,VWS V14.01,2013-04-24 05:06:00,
2013-04-24 00:11:00,26.0,22.7,30.06,NNW,339,0.0,0.0,87,0.00,,---,0.00,VWS V14.01,2013-04-24 05:11:00,
2013-04-24 00:15:00,26.0,22.7,30.06,NNW,339,0.0,0.0,87,0.00,,---,0.00,VWS V14.01,2013-04-24 05:15:00,
2013-04-24 00:20:00,26.0,22.7,30.06,NNW,339,0.0,0.0,87,0.00,,---,0.00,VWS V14.01,2013-04-24 05:20:00,
2013-04-24 00:25:00,26.0,22.7,30.06,NNW,339,0.0,0.0,87,0.00,,---,0.00,VWS V14.01,2013-04-24 05:25:00,
2013-04-24 00:30:00,26.0,22.7,30.06,NNW,339,0.0,0.0,87,0.00,,---,0.00,VWS V14.01,2013-04-24 05:30:00,
2013-04-24 00:35:00,26.0,22.9,30.06,NNW,339,0.0,0.0,88,0.00,,---,0.00,VWS V14.01,2013-04-24 05:35:00,
2013-04-24 00:40:00,25.8,22.7,30.06,NNW,339,0.0,0.0,88,0.00,,---,0.00,VWS V14.01,2013-04-24 05:40:00,
2013-04-24 00:45:00,25.8,22.7,30.06,NNW,339,0.0,0.0,88,0.00,,---,0.00,VWS V14.01,2013-04-24 05:45:00,
2013-04-24 00:50:00,25.7,22.6,30.06,NNW,339,0.0,0.0,88,0.00,,---,0.00,VWS V14.01,2013-04-24 05:50:00,
2013-04-24 00:55:00,25.6,22.8,30.06,NNW,339,0.0,0.0,89,0.00,,---,0.00,VWS V14.01,2013-04-24 05:55:00,
2013-04-24 01:00:00,25.3,22.5,30.05,NNW,339,0.0,0.0,89,0.00,,---,0.00,VWS V14.01,2013-04-24 06:00:00,
2013-04-24 01:05:00,25.1,22.3,30.05,NNW,339,0.0,0.0,89,0.00,,---,0.00,VWS V14.01,2013-04-24 06:05:00,
2013-04-24 01:10:00,25.0,22.2,30.05,NNW,339,0.0,0.0,89,0.00,,---,0.00,VWS V14.01,2013-04-24 06:10:00,
2013-04-24 01:15:00,25.1,22.3,30.04,NNW,339,0.0,0.0,89,0.00,,---,0.00,VWS V14.01,2013-04-24 06:15:00,
2013-04-24 01:20:00,25.3,22.5,30.04,NNW,339,0.0,0.0,89,0.00,,---,0.00,VWS V14.01,2013-04-24 06:20:00,
2013-04-24 01:25:00,25.4,22.6,30.04,NNW,339,0.0,0.0,89,0.00,,---,0.00,VWS V14.01,2013-04-24 06:25:00,
2013-04-24 01:30:00,25.3,22.5,30.04,NNW,339,0.0,0.0,89,0.00,,---,0.00,VWS V14.01,2013-04-24 06:30:00,
2013-04-24 01:35:00,25.1,22.0,30.04,NNW,339,0.0,0.0,88,0.00,,---,0.00,VWS V14.01,2013-04-24 06:35:00,
2013-04-24 01:40:00,25.0,22.2,30.04,NNW,339,0.0,0.0,89,0.00,,---,0.00,VWS V14.01,2013-04-24 06:40:00,
2013-04-24 01:45:00,25.0,22.2,30.03,NNW,339,0.0,0.0,89,0.00,,---,0.00,VWS V14.01,2013-04-24 06:45:00,
2013-04-24 01:50:00,24.8,22.0,30.03,NNW,339,0.0,0.0,89,0.00,,---,0.00,VWS V14.01,2013-04-24 06:50:00,
2013-04-24 01:55:00,25.0,22.5,30.03,NNW,339,0.0,0.0,90,0.00,,---,0.00,VWS V14.01,2013-04-24 06:55:00,
2013-04-24 02:00:00,25.1,22.6,30.03,NNW,339,0.0,0.0,90,0.00,,---,0.00,VWS V14.01,2013-04-24 07:00:00,
2013-04-24 02:05:00,25.4,22.9,30.03,NNW,339,0.0,0.0,90,0.00,,---,0.00,VWS V14.01,2013-04-24 07:05:00,
2013-04-24 02:10:00,25.7,23.2,30.03,NNW,339,0.0,0.0,90,0.00,,---,0.00,VWS V14.01,2013-04-24 07:10:00,
2013-04-24 02:15:00,25.8,23.0,30.02,NNW,339,0.0,0.0,89,0.00,,---,0.00,VWS V14.01,2013-04-24 07:15:00,
2013-04-24 02:20:00,25.7,22.6,30.02,NNW,339,0.0,0.0,88,0.00,,---,0.00,VWS V14.01,2013-04-24 07:20:00,
2013-04-24 02:25:00,25.6,22.5,30.02,NNW,339,0.0,0.0,88,0.00,,---,0.00,VWS V14.01,2013-04-24 07:25:00,
2013-04-24 02:30:00,25.4,22.4,30.02,NNW,339,0.0,0.0,88,0.00,,---,0.00,VWS V14.01,2013-04-24 07:30:00,
2013-04-24 02:35:00,25.4,22.6,30.02,NNW,339,0.0,0.0,89,0.00,,---,0.00,VWS V14.01,2013-04-24 07:35:00,
2013-04-24 02:40:00,25.1,22.3,30.02,NNW,339,0.0,0.0,89,0.00,,---,0.00,VWS V14.01,2013-04-24 07:40:00,
2013-04-24 02:45:00,25.1,22.6,30.02,NNW,339,0.0,0.0,90,0.00,,---,0.00,VWS V14.01,2013-04-24 07:45:00,
2013-04-24 02:50:00,25.3,22.8,30.02,NNW,339,0.0,0.0,90,0.00,,---,0.00,VWS V14.01,2013-04-24 07:50:00,
2013-04-24 02:55:00,25.4,22.9,30.02,West,272,2.0,5.0,90,0.00,,---,0.00,VWS V14.01,2013-04-24 07:55:00,
2013-04-24 03:00:00,25.6,23.1,30.01,West,271,3.0,5.0,90,0.00,,---,0.00,VWS V14.01,2013-04-24 08:00:00,
2013-04-24 03:05:00,25.6,22.8,30.01,West,267,2.0,3.0,89,0.00,,---,0.00,VWS V14.01,2013-04-24 08:05:00,
2013-04-24 03:10:00,25.4,22.6,30.01,West,265,2.0,3.0,89,0.00,,---,0.00,VWS V14.01,2013-04-24 08:10:00,
2013-04-24 03:15:00,25.4,22.4,30.01,West,261,2.0,3.0,88,0.00,,---,0.00,VWS V14.01,2013-04-24 08:15:00,
2013-04-24 03:20:00,24.8,21.8,30.01,West,260,1.0,3.0,88,0.00,,---,0.00,VWS V14.01,2013-04-24 08:20:00,
2013-04-24 03:25:00,25.0,22.5,30.01,West,265,2.0,3.0,90,0.00,,---,0.00,VWS V14.01,2013-04-24 08:25:00,
2013-04-24 03:30:00,25.4,22.9,30.01,West,271,3.0,3.0,90,0.00,,---,0.00,VWS V14.01,2013-04-24 08:30:00,
2013-04-24 03:35:00,25.8,23.3,30.01,West,274,3.0,5.0,90,0.00,,---,0.00,VWS V14.01,2013-04-24 08:35:00,
2013-04-24 03:40:00,26.1,23.0,30.01,West,272,3.0,5.0,88,0.00,,---,0.00,VWS V14.01,2013-04-24 08:40:00,
2013-04-24 03:45:00,26.1,23.0,30.01,West,267,4.0,5.0,88,0.00,,---,0.00,VWS V14.01,2013-04-24 08:45:00,
2013-04-24 03:50:00,26.0,22.7,30.01,WSW,250,3.0,5.0,87,0.00,,---,0.00,VWS V14.01,2013-04-24 08:50:00,
2013-04-24 03:55:00,26.1,23.0,30.01,West,260,3.0,4.0,88,0.00,,---,0.00,VWS V14.01,2013-04-24 08:55:00,
2013-04-24 04:00:00,26.3,23.2,30.01,WSW,258,2.0,4.0,88,0.00,,---,0.00,VWS V14.01,2013-04-24 09:00:00,
2013-04-24 04:05:00,26.4,23.3,30.01,WSW,258,3.0,4.0,88,0.00,,---,0.00,VWS V14.01,2013-04-24 09:05:00,
2013-04-24 04:10:00,26.7,23.4,30.01,West,260,2.0,5.0,87,0.00,,---,0.00,VWS V14.01,2013-04-24 09:10:00,
2013-04-24 04:15:00,26.6,23.3,30.01,West,270,2.0,5.0,87,0.00,,---,0.00,VWS V14.01,2013-04-24 09:15:00,
2013-04-24 04:20:00,26.6,23.3,30.00,West,270,4.0,5.0,87,0.00,,---,0.00,VWS V14.01,2013-04-24 09:20:00,
2013-04-24 04:25:00,26.1,22.8,30.00,West,260,3.0,5.0,87,0.00,,---,0.00,VWS V14.01,2013-04-24 09:25:00,
2013-04-24 04:30:00,26.0,22.9,30.00,West,260,3.0,5.0,88,0.00,,---,0.00,VWS V14.01,2013-04-24 09:30:00,
2013-04-24 04:35:00,26.1,23.0,30.00,WSW,250,2.0,3.0,88,0.00,,---,0.00,VWS V14.01,2013-04-24 09:35:00,
2013-04-24 04:40:00,26.4,23.3,30.00,WSW,248,2.0,5.0,88,0.00,,---,0.00,VWS V14.01,2013-04-24 09:40:00,
2013-04-24 04:45:00,26.4,23.3,30.00,WSW,247,2.0,3.0,88,0.00,,---,0.00,VWS V14.01,2013-04-24 09:45:00,
2013-04-24 04:50:00,26.6,23.5,30.00,West,264,2.0,3.0,88,0.00,,---,0.00,VWS V14.01,2013-04-24 09:50:00,
2013-04-24 04:55:00,26.7,23.6,30.00,West,270,2.0,3.0,88,0.00,,---,0.00,VWS V14.01,2013-04-24 09:55:00,
2013-04-24 05:00:00,26.9,23.8,30.00,WNW,282,2.0,3.0,88,0.00,,---,0.00,VWS V14.01,2013-04-24 10:00:00,
2013-04-24 05:05:00,27.0,23.9,29.99,West,281,2.0,3.0,88,0.00,,---,0.00,VWS V14.01,2013-04-24 10:05:00,
2013-04-24 05:10:00,27.2,23.9,29.99,West,274,2.0,3.0,87,0.00,,---,0.00,VWS V14.01,2013-04-24 10:10:00,
2013-04-24 05:15:00,27.2,23.9,29.99,West,271,2.0,3.0,87,0.00,,---,0.00,VWS V14.01,2013-04-24 10:15:00,
2013-04-24 05:20:00,27.2,23.9,29.99,WSW,256,4.0,5.0,87,0.00,,---,0.00,VWS V14.01,2013-04-24 10:20:00,
2013-04-24 05:25:00,26.9,23.3,29.99,West,264,3.0,5.0,86,0.00,,---,0.00,VWS V14.01,2013-04-24 10:25:00,
2013-04-24 05:30:00,26.6,23.3,29.99,West,264,3.0,5.0,87,0.00,,---,0.00,VWS V14.01,2013-04-24 10:30:00,
2013-04-24 05:35:00,26.6,23.3,29.99,WSW,257,3.0,4.0,87,0.00,,---,0.00,VWS V14.01,2013-04-24 10:35:00,
2013-04-24 05:40:00,26.6,23.5,29.99,WSW,253,2.0,7.0,88,0.00,,---,0.00,VWS V14.01,2013-04-24 10:40:00,
2013-04-24 05:45:00,26.1,22.8,29.99,West,260,3.0,5.0,87,0.00,,---,0.00,VWS V14.01,2013-04-24 10:45:00,
2013-04-24 05:50:00,26.0,22.9,29.99,West,260,3.0,5.0,88,0.00,,---,0.00,VWS V14.01,2013-04-24 10:50:00,
2013-04-24 05:55:00,25.7,22.6,29.99,West,260,3.0,4.0,88,0.00,,---,0.00,VWS V14.01,2013-04-24 10:55:00,
2013-04-24 06:00:00,25.7,22.6,29.99,West,261,2.0,5.0,88,0.00,,---,0.00,VWS V14.01,2013-04-24 11:00:00,
2013-04-24 06:05:00,25.7,22.9,29.99,WSW,250,2.0,3.0,89,0.00,,---,0.00,VWS V14.01,2013-04-24 11:05:00,
2013-04-24 06:10:00,25.7,22.9,29.99,WSW,243,3.0,3.0,89,0.00,,---,0.00,VWS V14.01,2013-04-24 11:10:00,
2013-04-24 06:15:00,26.0,23.5,29.99,WSW,244,3.0,4.0,90,0.00,,---,0.00,VWS V14.01,2013-04-24 11:15:00,
2013-04-24 06:20:00,26.0,23.2,29.99,WSW,247,3.0,4.0,89,0.00,,---,0.00,VWS V14.01,2013-04-24 11:20:00,
2013-04-24 06:25:00,26.1,23.6,29.99,SW,236,3.0,4.0,90,0.00,,---,0.00,VWS V14.01,2013-04-24 11:25:00,
2013-04-24 06:30:00,26.0,23.2,29.99,West,260,2.0,4.0,89,0.00,,---,0.00,VWS V14.01,2013-04-24 11:30:00,
2013-04-24 06:35:00,25.6,22.8,29.99,West,271,3.0,4.0,89,0.00,,---,0.00,VWS V14.01,2013-04-24 11:35:00,
2013-04-24 06:40:00,25.6,22.8,29.99,West,265,3.0,4.0,89,0.00,,---,0.00,VWS V14.01,2013-04-24 11:40:00,
2013-04-24 06:45:00,25.7,23.2,29.99,West,274,5.0,5.0,90,0.00,,---,0.00,VWS V14.01,2013-04-24 11:45:00,
2013-04-24 06:50:00,26.1,23.6,29.99,West,270,3.0,6.0,90,0.00,,---,0.00,VWS V14.01,2013-04-24 11:50:00,
2013-04-24 06:55:00,26.4,23.6,29.99,West,270,2.0,5.0,89,0.00,,---,0.00,VWS V14.01,2013-04-24 11:55:00,
2013-04-24 07:00:00,26.6,23.8,29.99,West,263,3.0,5.0,89,0.00,,---,0.00,VWS V14.01,2013-04-24 12:00:00,
2013-04-24 07:05:00,26.9,24.1,29.98,West,267,4.0,6.0,89,0.00,,---,0.00,VWS V14.01,2013-04-24 12:05:00,
2013-04-24 07:10:00,27.2,24.1,29.98,West,268,3.0,7.0,88,0.00,,---,0.00,VWS V14.01,2013-04-24 12:10:00,
2013-04-24 07:15:00,27.5,24.4,29.98,West,272,3.0,5.0,88,0.00,,---,0.00,VWS V14.01,2013-04-24 12:15:00,
2013-04-24 07:19:00,27.6,24.2,29.98,West,267,3.0,6.0,87,0.00,,---,0.00,VWS V14.01,2013-04-24 12:19:00,
2013-04-24 07:24:00,27.9,24.5,29.98,West,265,2.0,6.0,87,0.00,,---,0.00,VWS V14.01,2013-04-24 12:24:00,
2013-04-24 07:29:00,28.4,25.0,29.98,West,260,0.0,6.0,87,0.00,,---,0.00,VWS V14.01,2013-04-24 12:29:00,
2013-04-24 07:34:00,28.5,25.1,29.98,West,270,0.0,3.0,87,0.00,,---,0.00,VWS V14.01,2013-04-24 12:34:00,
2013-04-24 07:39:00,28.8,25.4,29.98,West,270,5.0,6.0,87,0.00,,---,0.00,VWS V14.01,2013-04-24 12:39:00,
2013-04-24 07:44:00,29.0,25.4,29.98,West,272,3.0,6.0,86,0.00,,---,0.00,VWS V14.01,2013-04-24 12:44:00,
2013-04-24 07:49:00,29.4,25.7,29.97,West,265,2.0,6.0,86,0.00,,---,0.00,VWS V14.01,2013-04-24 12:49:00,
2013-04-24 07:54:00,29.7,25.8,29.97,West,261,3.0,6.0,85,0.00,,---,0.00,VWS V14.01,2013-04-24 12:54:00,
2013-04-24 07:59:00,30.0,26.0,29.97,WSW,257,5.0,7.0,85,0.00,,---,0.00,VWS V14.01,2013-04-24 12:59:00,
2013-04-24 08:04:00,30.3,26.3,29.97,West,274,7.0,7.0,85,0.00,,---,0.00,VWS V14.01,2013-04-24 13:04:00,
2013-04-24 08:09:00,30.4,26.1,29.97,West,267,6.0,10.0,84,0.00,,---,0.00,VWS V14.01,2013-04-24 13:09:00,
2013-04-24 08:14:00,30.7,26.2,29.97,West,268,5.0,11.0,83,0.00,,---,0.00,VWS V14.01,2013-04-24 13:14:00,
2013-04-24 08:19:00,31.0,26.2,29.97,West,272,5.0,11.0,82,0.00,,---,0.00,VWS V14.01,2013-04-24 13:19:00,
2013-04-24 08:24:00,31.3,26.5,29.97,West,278,4.0,9.0,82,0.00,,---,0.00,VWS V14.01,2013-04-24 13:24:00,
2013-04-24 08:29:00,31.5,26.4,29.97,West,261,6.0,9.0,81,0.00,,---,0.00,VWS V14.01,2013-04-24 13:29:00,
2013-04-24 08:34:00,31.9,26.7,29.96,West,270,7.0,7.0,81,0.00,,---,0.00,VWS V14.01,2013-04-24 13:34:00,
2013-04-24 08:39:00,32.5,27.6,29.96,West,274,6.0,8.0,82,0.00,,---,0.00,VWS V14.01,2013-04-24 13:39:00,
2013-04-24 08:44:00,32.7,26.9,29.96,West,261,5.0,10.0,79,0.00,,---,0.00,VWS V14.01,2013-04-24 13:44:00,
2013-04-24 08:49:00,33.2,27.4,29.96,West,270,10.0,10.0,79,0.00,,---,0.00,VWS V14.01,2013-04-24 13:49:00,
2013-04-24 08:54:00,33.8,28.0,29.96,WNW,284,5.0,10.0,79,0.00,,---,0.00,VWS V14.01,2013-04-24 13:54:00,
2013-04-24 08:59:00,34.1,27.3,29.96,West,267,7.0,10.0,76,0.00,,---,0.00,VWS V14.01,2013-04-24 13:59:00,
2013-04-24 09:04:00,34.4,27.3,29.95,West,265,6.0,11.0,75,0.00,,---,0.00,VWS V14.01,2013-04-24 14:04:00,
2013-04-24 09:09:00,34.9,27.8,29.95,West,277,6.0,12.0,75,0.00,,---,0.00,VWS V14.01,2013-04-24 14:09:00,
2013-04-24 09:14:00,35.3,27.9,29.95,West,265,8.0,12.0,74,0.00,,---,0.00,VWS V14.01,2013-04-24 14:14:00,
2013-04-24 09:19:00,35.6,27.5,29.95,West,272,10.0,13.0,72,0.00,,---,0.00,VWS V14.01,2013-04-24 14:19:00,
2013-04-24 09:24:00,35.9,27.8,29.95,West,280,8.0,12.0,72,0.00,,---,0.00,VWS V14.01,2013-04-24 14:24:00,
2013-04-24 09:29:00,36.2,27.4,29.95,West,278,10.0,13.0,70,0.00,,---,0.00,VWS V14.01,2013-04-24 14:29:00,
2013-04-24 09:34:00,36.5,28.4,29.94,West,271,10.0,11.0,72,0.00,,---,0.00,VWS V14.01,2013-04-24 14:34:00,
2013-04-24 09:39:00,36.6,28.4,29.94,West,270,11.0,13.0,72,0.00,,---,0.00,VWS V14.01,2013-04-24 14:39:00,
2013-04-24 09:44:00,37.2,28.7,29.94,WNW,284,7.0,12.0,71,0.00,,---,0.00,VWS V14.01,2013-04-24 14:44:00,
2013-04-24 09:49:00,37.2,28.0,29.94,WSW,257,10.0,12.0,69,0.00,,---,0.00,VWS V14.01,2013-04-24 14:49:00,
2013-04-24 09:54:00,37.3,28.1,29.94,WSW,254,6.0,12.0,69,0.00,,---,0.00,VWS V14.01,2013-04-24 14:54:00,
2013-04-24 09:59:00,37.3,28.1,29.94,West,278,7.0,13.0,69,0.00,,---,0.00,VWS V14.01,2013-04-24 14:59:00,
2013-04-24 10:04:00,37.9,28.6,29.93,West,278,10.0,14.0,69,0.00,,---,0.00,VWS V14.01,2013-04-24 15:04:00,
2013-04-24 10:09:00,38.2,28.2,29.93,West,278,7.0,14.0,67,0.00,,---,0.00,VWS V14.01,2013-04-24 15:09:00,
2013-04-24 10:14:00,38.8,28.8,29.93,West,280,9.0,12.0,67,0.00,,---,0.00,VWS V14.01,2013-04-24 15:14:00,
2013-04-24 10:19:00,39.5,29.5,29.93,NW,304,12.0,14.0,67,0.00,,---,0.00,VWS V14.01,2013-04-24 15:19:00,
2013-04-24 10:24:00,39.5,28.7,29.93,WNW,292,8.0,13.0,65,0.00,,---,0.00,VWS V14.01,2013-04-24 15:24:00,
2013-04-24 10:29:00,39.8,29.4,29.93,West,275,15.0,15.0,66,0.00,,---,0.00,VWS V14.01,2013-04-24 15:29:00,
2013-04-24 10:34:00,40.3,29.5,29.92,West,275,13.0,14.0,65,0.00,,---,0.00,VWS V14.01,2013-04-24 15:34:00,
2013-04-24 10:39:00,40.6,30.1,29.92,WSW,244,13.0,14.0,66,0.00,,---,0.00,VWS V14.01,2013-04-24 15:39:00,
2013-04-24 10:44:00,41.3,30.4,29.92,West,275,16.0,16.0,65,0.00,,---,0.00,VWS V14.01,2013-04-24 15:44:00,
2013-04-24 10:49:00,41.6,28.8,29.92,WNW,282,10.0,18.0,60,0.00,,---,0.00,VWS V14.01,2013-04-24 15:49:00,
2013-04-24 10:54:00,42.2,29.3,29.92,West,280,13.0,18.0,60,0.00,,---,0.00,VWS V14.01,2013-04-24 15:54:00,
2013-04-24 10:59:00,41.9,27.8,29.92,West,268,13.0,22.0,57,0.00,,---,0.00,VWS V14.01,2013-04-24 15:59:00,
2013-04-24 11:04:00,41.8,27.3,29.92,West,270,17.0,20.0,56,0.00,,---,0.00,VWS V14.01,2013-04-24 16:04:00,
2013-04-24 11:09:00,42.6,27.6,29.92,West,271,13.0,20.0,55,0.00,,---,0.00,VWS V14.01,2013-04-24 16:09:00,
2013-04-24 11:14:00,43.2,28.6,29.92,West,280,18.0,21.0,56,0.00,,---,0.00,VWS V14.01,2013-04-24 16:14:00,
2013-04-24 11:19:00,43.2,26.8,29.91,West,272,18.0,28.0,52,0.00,,---,0.00,VWS V14.01,2013-04-24 16:19:00,
2013-04-24 11:24:00,43.2,26.8,29.91,West,277,12.0,21.0,52,0.00,,---,0.00,VWS V14.01,2013-04-24 16:24:00,
2013-04-24 11:29:00,43.6,28.1,29.91,West,270,20.0,21.0,54,0.00,,---,0.00,VWS V14.01,2013-04-24 16:29:00,
2013-04-24 11:34:00,43.5,28.4,29.91,WNW,289,14.0,24.0,55,0.00,,---,0.00,VWS V14.01,2013-04-24 16:34:00,
2013-04-24 11:39:00,43.3,27.3,29.91,West,278,16.0,24.0,53,0.00,,---,0.00,VWS V14.01,2013-04-24 16:39:00,
2013-04-24 11:44:00,43.9,29.7,29.91,West,278,13.0,20.0,57,0.00,,---,0.00,VWS V14.01,2013-04-24 16:44:00,
2013-04-24 11:49:00,44.3,28.3,29.90,WSW,250,20.0,24.0,53,0.00,,---,0.00,VWS V14.01,2013-04-24 16:49:00,
2013-04-24 11:54:00,44.5,26.5,29.90,West,264,14.0,24.0,49,0.00,,---,0.00,VWS V14.01,2013-04-24 16:54:00,
2013-04-24 11:59:00,44.9,28.8,29.90,WSW,257,14.0,24.0,53,0.00,,---,0.00,VWS V14.01,2013-04-24 16:59:00,
2013-04-24 12:04:00,44.5,26.0,29.90,West,260,13.0,24.0,48,0.00,,---,0.00,VWS V14.01,2013-04-24 17:04:00,
2013-04-24 12:09:00,44.6,29.0,29.90,WSW,257,14.0,24.0,54,0.00,,---,0.00,VWS V14.01,2013-04-24 17:09:00,
2013-04-24 12:14:00,43.8,25.4,29.90,WSW,257,11.0,21.0,48,0.00,,---,0.00,VWS V14.01,2013-04-24 17:14:00,
2013-04-24 12:19:00,43.9,28.8,29.90,WSW,258,19.0,21.0,55,0.00,,---,0.00,VWS V14.01,2013-04-24 17:19:00,
2013-04-24 12:24:00,44.9,26.4,29.90,West,265,13.0,24.0,48,0.00,,---,0.00,VWS V14.01,2013-04-24 17:24:00,
2013-04-24 12:29:00,44.6,25.6,29.90,West,270,16.0,26.0,47,0.00,,---,0.00,VWS V14.01,2013-04-24 17:29:00,
2013-04-24 12:34:00,45.1,26.6,29.89,WNW,282,15.0,26.0,48,0.00,,---,0.00,VWS V14.01,2013-04-24 17:34:00,
2013-04-24 12:39:00,45.4,27.4,29.89,West,270,11.0,26.0,49,0.00,,---,0.00,VWS V14.01,2013-04-24 17:39:00,
2013-04-24 12:44:00,46.0,28.4,29.89,West,275,20.0,22.0,50,0.00,,---,0.00,VWS V14.01,2013-04-24 17:44:00,
2013-04-24 12:49:00,46.0,29.4,29.88,WSW,247,19.0,22.0,52,0.00,,---,0.00,VWS V14.01,2013-04-24 17:49:00,
2013-04-24 12:54:00,45.7,27.6,29.88,West,260,20.0,29.0,49,0.00,,---,0.00,VWS V14.01,2013-04-24 17:54:00,
2013-04-24 12:59:00,45.7,27.6,29.88,West,267,16.0,29.0,49,0.00,,---,0.00,VWS V14.01,2013-04-24 17:59:00,
2013-04-24 13:04:00,46.0,30.3,29.88,SW,230,17.0,20.0,54,0.00,,---,0.00,VWS V14.01,2013-04-24 18:04:00,
2013-04-24 13:09:00,45.5,28.0,29.88,West,277,16.0,25.0,50,0.00,,---,0.00,VWS V14.01,2013-04-24 18:09:00,
2013-04-24 13:14:00,44.8,25.3,29.88,West,272,18.0,27.0,46,0.00,,---,0.00,VWS V14.01,2013-04-24 18:14:00,
2013-04-24 13:19:00,44.8,25.8,29.88,West,260,22.0,30.0,47,0.00,,---,0.00,VWS V14.01,2013-04-24 18:19:00,
2013-04-24 13:24:00,45.5,28.4,29.88,West,270,21.0,21.0,51,0.00,,---,0.00,VWS V14.01,2013-04-24 18:24:00,
2013-04-24 13:29:00,45.2,29.1,29.88,West,275,12.0,26.0,53,0.00,,---,0.00,VWS V14.01,2013-04-24 18:29:00,
2013-04-24 13:34:00,46.2,30.5,29.87,West,270,12.0,24.0,54,0.00,,---,0.00,VWS V14.01,2013-04-24 18:34:00,
2013-04-24 13:39:00,45.8,31.5,29.87,West,270,17.0,24.0,57,0.00,,---,0.00,VWS V14.01,2013-04-24 18:39:00,
2013-04-24 13:44:00,45.7,30.5,29.87,WNW,282,13.0,22.0,55,0.00,,---,0.00,VWS V14.01,2013-04-24 18:44:00,
2013-04-24 13:49:00,45.2,29.6,29.87,West,277,14.0,24.0,54,0.00,,---,0.00,VWS V14.01,2013-04-24 18:49:00,
2013-04-24 13:54:00,45.5,29.8,29.87,West,277,16.0,22.0,54,0.00,,---,0.00,VWS V14.01,2013-04-24 18:54:00,
2013-04-24 13:59:00,45.5,30.7,29.87,West,277,22.0,22.0,56,0.00,,---,0.00,VWS V14.01,2013-04-24 18:59:00,
2013-04-24 14:04:00,46.0,31.6,29.87,West,280,11.0,19.0,57,0.00,,---,0.00,VWS V14.01,2013-04-24 19:04:00,
2013-04-24 14:09:00,46.5,33.4,29.87,WNW,289,10.0,19.0,60,0.00,,---,0.00,VWS V14.01,2013-04-24 19:09:00,
2013-04-24 14:14:00,46.1,32.2,29.87,WNW,284,18.0,25.0,58,0.00,,---,0.00,VWS V14.01,2013-04-24 19:14:00,
2013-04-24 14:19:00,45.5,30.7,29.88,West,260,13.0,25.0,56,0.00,,---,0.00,VWS V14.01,2013-04-24 19:19:00,
2013-04-24 14:24:00,44.5,31.1,29.88,WNW,291,18.0,19.0,59,0.00,,---,0.00,VWS V14.01,2013-04-24 19:24:00,
2013-04-24 14:28:00,43.9,31.7,29.88,West,280,12.0,19.0,62,0.00,,---,0.00,VWS V14.01,2013-04-24 19:28:00,
2013-04-24 14:33:00,44.1,32.7,29.88,WNW,292,13.0,16.0,64,0.00,,---,0.00,VWS V14.01,2013-04-24 19:33:00,
2013-04-24 14:38:00,44.1,32.7,29.88,West,270,8.0,16.0,64,0.00,,---,0.00,VWS V14.01,2013-04-24 19:38:00,
2013-04-24 14:43:00,44.2,31.6,29.88,West,278,18.0,19.0,61,0.00,,---,0.00,VWS V14.01,2013-04-24 19:43:00,
2013-04-24 14:48:00,44.3,32.1,29.88,West,272,19.0,20.0,62,0.00,,---,0.00,VWS V14.01,2013-04-24 19:48:00,
2013-04-24 14:53:00,44.5,33.5,29.88,West,274,15.0,20.0,65,0.00,,---,0.00,VWS V14.01,2013-04-24 19:53:00,
2013-04-24 14:58:00,44.3,32.5,29.88,WSW,246,11.0,20.0,63,0.00,,---,0.00,VWS V14.01,2013-04-24 19:58:00,
2013-04-24 15:03:00,43.2,33.0,29.88,NW,306,7.0,18.0,67,0.00,,---,0.00,VWS V14.01,2013-04-24 20:03:00,
2013-04-24 15:08:00,39.3,31.7,29.88,WNW,289,13.0,18.0,74,0.00,,---,0.00,VWS V14.01,2013-04-24 20:08:00,
2013-04-24 15:13:00,38.6,32.3,29.88,NW,306,13.0,16.0,78,0.00,,---,0.00,VWS V14.01,2013-04-24 20:13:00,
2013-04-24 15:18:00,39.3,32.0,29.89,NNW,340,7.0,18.0,75,0.02,,---,0.02,VWS V14.01,2013-04-24 20:18:00,
2013-04-24 15:23:00,39.9,32.6,29.89,NNW,344,4.0,12.0,75,0.03,,---,0.03,VWS V14.01,2013-04-24 20:23:00,
2013-04-24 15:28:00,40.2,31.9,29.89,NNW,347,5.0,14.0,72,0.03,,---,0.03,VWS V14.01,2013-04-24 20:28:00,
2013-04-24 15:33:00,40.3,31.0,29.89,North,353,5.0,11.0,69,0.04,,---,0.04,VWS V14.01,2013-04-24 20:33:00,
2013-04-24 15:38:00,40.3,30.2,29.89,NW,316,7.0,11.0,67,0.04,,---,0.04,VWS V14.01,2013-04-24 20:38:00,
2013-04-24 15:43:00,40.5,30.0,29.89,WNW,302,9.0,10.0,66,0.04,,---,0.04,VWS V14.01,2013-04-24 20:43:00,
2013-04-24 15:48:00,40.5,30.4,29.89,NNW,330,4.0,12.0,67,0.04,,---,0.04,VWS V14.01,2013-04-24 20:48:00,
2013-04-24 15:53:00,40.5,30.4,29.89,NNW,328,6.0,10.0,67,0.04,,---,0.04,VWS V14.01,2013-04-24 20:53:00,
2013-04-24 15:58:00,40.6,30.9,29.89,North,353,7.0,10.0,68,0.04,,---,0.04,VWS V14.01,2013-04-24 20:58:00,
2013-04-24 16:03:00,40.9,30.8,29.89,NNW,339,2.0,3.0,67,0.04,,---,0.04,VWS V14.01,2013-04-24 21:03:00,
2013-04-24 16:08:00,41.5,30.6,29.89,NW,326,3.0,7.0,65,0.04,,---,0.04,VWS V14.01,2013-04-24 21:08:00,
2013-04-24 16:13:00,41.8,31.3,29.89,NW,316,2.0,13.0,66,0.04,,---,0.04,VWS V14.01,2013-04-24 21:13:00,
2013-04-24 16:18:00,41.6,31.8,29.89,NNW,343,11.0,14.0,68,0.04,,---,0.04,VWS V14.01,2013-04-24 21:18:00,
2013-04-24 16:23:00,41.5,31.7,29.89,NW,311,5.0,11.0,68,0.02,,---,0.04,VWS V14.01,2013-04-24 21:23:00,
2013-04-24 16:28:00,41.5,31.4,29.89,NNW,328,7.0,11.0,67,0.02,,---,0.04,VWS V14.01,2013-04-24 21:28:00,
2013-04-24 16:33:00,41.3,31.9,29.89,North,353,7.0,8.0,69,0.01,,---,0.04,VWS V14.01,2013-04-24 21:33:00,
2013-04-24 16:38:00,41.3,29.3,29.89,NNW,347,12.0,14.0,62,0.01,,---,0.04,VWS V14.01,2013-04-24 21:38:00,
2013-04-24 16:43:00,41.2,24.9,29.89,NW,325,8.0,14.0,52,0.00,,---,0.04,VWS V14.01,2013-04-24 21:43:00,
2013-04-24 16:48:00,41.1,26.6,29.90,NNW,330,3.0,14.0,56,0.00,,---,0.04,VWS V14.01,2013-04-24 21:48:00,
2013-04-24 16:53:00,41.1,27.9,29.90,WNW,301,6.0,8.0,59,0.00,,---,0.04,VWS V14.01,2013-04-24 21:53:00,
2013-04-24 16:58:00,40.8,29.2,29.90,West,277,5.0,8.0,63,0.00,,---,0.04,VWS V14.01,2013-04-24 21:58:00,
2013-04-24 17:03:00,40.5,28.1,29.89,WNW,284,5.0,8.0,61,0.00,,---,0.04,VWS V14.01,2013-04-24 22:03:00,
2013-04-24 17:08:00,40.5,28.5,29.89,West,263,9.0,10.0,62,0.00,,---,0.04,VWS V14.01,2013-04-24 22:08:00,
2013-04-24 17:13:00,40.2,30.5,29.89,West,281,6.0,7.0,68,0.00,,---,0.04,VWS V14.01,2013-04-24 22:13:00,
2013-04-24 17:18:00,40.1,30.0,29.89,WNW,295,4.0,8.0,67,0.00,,---,0.04,VWS V14.01,2013-04-24 22:18:00,
2013-04-24 17:23:00,40.1,30.0,29.89,West,281,3.0,6.0,67,0.00,,---,0.04,VWS V14.01,2013-04-24 22:23:00,
2013-04-24 17:28:00,40.2,29.8,29.89,West,281,5.0,7.0,66,0.00,,---,0.04,VWS V14.01,2013-04-24 22:28:00,
2013-04-24 17:33:00,40.1,30.4,29.89,WNW,289,2.0,5.0,68,0.00,,---,0.04,VWS V14.01,2013-04-24 22:33:00,
2013-04-24 17:38:00,39.8,30.8,29.89,WNW,288,3.0,6.0,70,0.00,,---,0.04,VWS V14.01,2013-04-24 22:38:00,
2013-04-24 17:43:00,39.8,31.2,29.89,WNW,282,2.0,5.0,71,0.00,,---,0.04,VWS V14.01,2013-04-24 22:43:00,
2013-04-24 17:48:00,39.8,30.8,29.89,West,280,5.0,7.0,70,0.00,,---,0.04,VWS V14.01,2013-04-24 22:48:00,
2013-04-24 17:53:00,39.8,31.5,29.89,West,275,7.0,11.0,72,0.00,,---,0.04,VWS V14.01,2013-04-24 22:53:00,
2013-04-24 17:58:00,40.1,32.5,29.89,West,275,2.0,11.0,74,0.00,,---,0.04,VWS V14.01,2013-04-24 22:58:00,
2013-04-24 18:03:00,40.1,32.2,29.89,West,275,5.0,10.0,73,0.00,,---,0.04,VWS V14.01,2013-04-24 23:03:00,
2013-04-24 18:08:00,40.1,31.5,29.89,NW,319,2.0,10.0,71,0.00,,---,0.04,VWS V14.01,2013-04-24 23:08:00,
2013-04-24 18:13:00,39.9,29.9,29.89,NNW,339,4.0,6.0,67,0.00,,---,0.04,VWS V14.01,2013-04-24 23:13:00,
2013-04-24 18:18:00,39.8,31.2,29.89,NW,311,3.0,7.0,71,0.00,,---,0.04,VWS V14.01,2013-04-24 23:18:00,
2013-04-24 18:23:00,40.1,31.5,29.89,NNW,333,3.0,7.0,71,0.00,,---,0.04,VWS V14.01,2013-04-24 23:23:00,
2013-04-24 18:28:00,40.1,30.4,29.89,NW,319,7.0,13.0,68,0.00,,---,0.04,VWS V14.01,2013-04-24 23:28:00,
2013-04-24 18:33:00,40.2,30.5,29.89,NW,320,5.0,10.0,68,0.00,,---,0.04,VWS V14.01,2013-04-24 23:33:00,
2013-04-24 18:38:00,39.9,30.9,29.89,NW,304,4.0,11.0,70,0.00,,---,0.04,VWS V14.01,2013-04-24 23:38:00,
2013-04-24 18:43:00,40.1,31.1,29.89,NW,316,5.0,11.0,70,0.00,,---,0.04,VWS V14.01,2013-04-24 23:43:00,
2013-04-24 18:48:00,40.3,32.0,29.89,NW,326,6.0,11.0,72,0.00,,---,0.04,VWS V14.01,2013-04-24 23:48:00,
2013-04-24 18:53:00,40.5,32.5,29.89,NW,323,8.0,8.0,73,0.00,,---,0.04,VWS V14.01,2013-04-24 23:53:00,
2013-04-24 18:58:00,40.2,32.2,29.89,NW,318,3.0,8.0,73,0.00,,---,0.04,VWS V14.01,2013-04-24 23:58:00,
2013-04-24 19:03:00,40.3,32.3,29.90,WNW,301,3.0,8.0,73,0.00,,---,0.04,VWS V14.01,2013-04-25 00:03:00,
2013-04-24 19:08:00,40.3,32.3,29.90,WNW,298,8.0,11.0,73,0.00,,---,0.04,VWS V14.01,2013-04-25 00:08:00,
2013-04-24 19:13:00,40.1,32.2,29.90,NW,304,4.0,11.0,73,0.00,,---,0.04,VWS V14.01,2013-04-25 00:13:00,
2013-04-24 19:18:00,39.5,31.9,29.90,NW,318,3.0,11.0,74,0.00,,---,0.04,VWS V14.01,2013-04-25 00:18:00,
2013-04-24 19:23:00,39.1,32.2,29.90,NW,312,3.0,6.0,76,0.00,,---,0.04,VWS V14.01,2013-04-25 00:23:00,
2013-04-24 19:28:00,38.8,31.9,29.90,NW,323,3.0,11.0,76,0.00,,---,0.04,VWS V14.01,2013-04-25 00:28:00,
2013-04-24 19:33:00,38.8,32.2,29.90,NNW,332,3.0,6.0,77,0.00,,---,0.04,VWS V14.01,2013-04-25 00:33:00,
2013-04-24 19:38:00,38.6,32.3,29.90,NW,320,0.0,6.0,78,0.00,,---,0.04,VWS V14.01,2013-04-25 00:38:00,
2013-04-24 19:43:00,38.3,32.4,29.90,NW,318,1.0,3.0,79,0.00,,---,0.04,VWS V14.01,2013-04-25 00:43:00,
2013-04-24 19:48:00,38.3,32.4,29.90,NW,308,2.0,6.0,79,0.00,,---,0.04,VWS V14.01,2013-04-25 00:48:00,
2013-04-24 19:53:00,38.3,32.4,29.90,WNW,299,5.0,6.0,79,0.00,,---,0.04,VWS V14.01,2013-04-25 00:53:00,
2013-04-24 19:58:00,38.3,32.7,29.90,WNW,299,1.0,6.0,80,0.00,,---,0.04,VWS V14.01,2013-04-25 00:58:00,
2013-04-24 20:03:00,38.2,32.9,29.90,WNW,299,1.0,2.0,81,0.00,,---,0.04,VWS V14.01,2013-04-25 01:03:00,
2013-04-24 20:08:00,38.0,33.0,29.90,WNW,285,2.0,5.0,82,0.00,,---,0.04,VWS V14.01,2013-04-25 01:08:00,
2013-04-24 20:13:00,37.9,32.9,29.90,WNW,288,2.0,3.0,82,0.00,,---,0.04,VWS V14.01,2013-04-25 01:13:00,
2013-04-24 20:18:00,37.8,32.8,29.89,West,278,2.0,6.0,82,0.00,,---,0.04,VWS V14.01,2013-04-25 01:18:00,
2013-04-24 20:23:00,37.5,32.5,29.89,WNW,285,1.0,5.0,82,0.00,,---,0.04,VWS V14.01,2013-04-25 01:23:00,
2013-04-24 20:28:00,37.2,32.2,29.89,WNW,288,3.0,5.0,82,0.00,,---,0.04,VWS V14.01,2013-04-25 01:28:00,
2013-04-24 20:33:00,37.0,32.3,29.90,West,271,5.0,5.0,83,0.00,,---,0.04,VWS V14.01,2013-04-25 01:33:00,
2013-04-24 20:38:00,36.9,32.2,29.90,West,280,2.0,5.0,83,0.00,,---,0.04,VWS V14.01,2013-04-25 01:38:00,
2013-04-24 20:43:00,36.9,32.2,29.90,WNW,282,2.0,5.0,83,0.00,,---,0.04,VWS V14.01,2013-04-25 01:43:00,
2013-04-24 20:48:00,36.6,32.2,29.90,WNW,282,3.0,5.0,84,0.00,,---,0.04,VWS V14.01,2013-04-25 01:48:00,
2013-04-24 20:53:00,36.5,32.1,29.90,WNW,284,0.0,1.0,84,0.00,,---,0.04,VWS V14.01,2013-04-25 01:53:00,
2013-04-24 20:58:00,36.2,31.8,29.90,WNW,291,1.0,3.0,84,0.00,,---,0.04,VWS V14.01,2013-04-25 01:58:00,
2013-04-24 21:03:00,35.9,31.8,29.91,WNW,294,0.0,0.0,85,0.00,,---,0.04,VWS V14.01,2013-04-25 02:03:00,
2013-04-24 21:08:00,35.6,31.8,29.91,WNW,291,0.0,1.0,86,0.00,,---,0.04,VWS V14.01,2013-04-25 02:08:00,
2013-04-24 21:13:00,35.5,31.7,29.91,WNW,291,0.0,0.0,86,0.00,,---,0.04,VWS V14.01,2013-04-25 02:13:00,
2013-04-24 21:18:00,35.3,31.8,29.91,WNW,294,0.0,0.0,87,0.00,,---,0.04,VWS V14.01,2013-04-25 02:18:00,
2013-04-24 21:22:00,35.3,31.8,29.91,WNW,301,6.0,7.0,87,0.00,,---,0.04,VWS V14.01,2013-04-25 02:22:00,
2013-04-24 21:27:00,35.9,31.5,29.91,NW,315,12.0,18.0,84,0.00,,---,0.04,VWS V14.01,2013-04-25 02:27:00,
2013-04-24 21:32:00,35.6,31.5,29.92,North,359,7.0,8.0,85,0.00,,---,0.04,VWS V14.01,2013-04-25 02:32:00,
2013-04-24 21:37:00,35.2,31.4,29.92,NNW,332,7.0,14.0,86,0.00,,---,0.04,VWS V14.01,2013-04-25 02:37:00,
2013-04-24 21:42:00,34.7,31.2,29.92,North,352,8.0,8.0,87,0.00,,---,0.04,VWS V14.01,2013-04-25 02:42:00,
2013-04-24 21:47:00,34.4,31.2,29.93,North,0,10.0,13.0,88,0.00,,---,0.04,VWS V14.01,2013-04-25 02:47:00,
2013-04-24 21:52:00,34.1,31.2,29.93,NNW,346,7.0,12.0,89,0.00,,---,0.04,VWS V14.01,2013-04-25 02:52:00,
2013-04-24 21:57:00,33.8,31.2,29.93,North,353,6.0,12.0,90,0.00,,---,0.04,VWS V14.01,2013-04-25 02:57:00,
2013-04-24 22:02:00,33.8,31.2,29.94,NW,326,7.0,7.0,90,0.00,,---,0.04,VWS V14.01,2013-04-25 03:02:00,
2013-04-24 22:07:00,33.8,31.2,29.94,North,0,8.0,11.0,90,0.00,,---,0.04,VWS V14.01,2013-04-25 03:07:00,
2013-04-24 22:12:00,33.7,31.1,29.94,NNW,329,8.0,10.0,90,0.00,,---,0.04,VWS V14.01,2013-04-25 03:12:00,
2013-04-24 22:17:00,33.2,30.9,29.94,NNW,343,13.0,19.0,91,0.00,,---,0.04,VWS V14.01,2013-04-25 03:17:00,
2013-04-24 22:22:00,32.9,31.1,29.94,North,352,2.0,13.0,93,0.00,,---,0.04,VWS V14.01,2013-04-25 03:22:00,
2013-04-24 22:27:00,32.8,31.3,29.94,NNW,336,8.0,16.0,94,0.00,,---,0.04,VWS V14.01,2013-04-25 03:27:00,
2013-04-24 22:32:00,32.8,31.3,29.95,NNW,328,4.0,11.0,94,0.00,,---,0.04,VWS V14.01,2013-04-25 03:32:00,
2013-04-24 22:37:00,32.8,31.3,29.95,NNW,333,7.0,13.0,94,0.00,,---,0.04,VWS V14.01,2013-04-25 03:37:00,
2013-04-24 22:42:00,32.7,31.2,29.95,NNW,344,6.0,12.0,94,0.00,,---,0.04,VWS V14.01,2013-04-25 03:42:00,
2013-04-24 22:47:00,32.7,31.2,29.95,North,0,12.0,17.0,94,0.00,,---,0.04,VWS V14.01,2013-04-25 03:47:00,
2013-04-24 22:52:00,32.5,31.0,29.95,NNW,333,8.0,12.0,94,0.00,,---,0.04,VWS V14.01,2013-04-25 03:52:00,
2013-04-24 22:57:00,32.4,31.1,29.95,NNW,346,11.0,16.0,95,0.00,,---,0.04,VWS V14.01,2013-04-25 03:57:00,
2013-04-24 23:01:00,32.4,31.1,29.96,North,350,9.0,16.0,95,0.00,,---,0.04,VWS V14.01,2013-04-25 04:01:00,
2013-04-24 23:06:00,32.4,31.1,29.96,NW,326,11.0,18.0,95,0.00,,---,0.04,VWS V14.01,2013-04-25 04:06:00,
2013-04-24 23:11:00,32.4,30.9,29.96,North,356,12.0,18.0,94,0.00,,---,0.04,VWS V14.01,2013-04-25 04:11:00,
2013-04-24 23:16:00,32.2,30.7,29.96,North,0,6.0,14.0,94,0.00,,---,0.04,VWS V14.01,2013-04-25 04:16:00,
2013-04-24 23:21:00,32.2,30.7,29.96,North,350,6.0,16.0,94,0.00,,---,0.04,VWS V14.01,2013-04-25 04:21:00,
2013-04-24 23:26:00,32.1,30.8,29.96,NW,325,7.0,14.0,95,0.00,,---,0.04,VWS V14.01,2013-04-25 04:26:00,
2013-04-24 23:31:00,31.9,30.6,29.97,NNW,330,7.0,14.0,95,0.00,,---,0.04,VWS V14.01,2013-04-25 04:31:00,
2013-04-24 23:36:00,31.9,30.6,29.97,NNW,336,8.0,17.0,95,0.00,,---,0.04,VWS V14.01,2013-04-25 04:36:00,
2013-04-24 23:41:00,31.9,30.4,29.97,NNW,347,2.0,17.0,94,0.00,,---,0.04,VWS V14.01,2013-04-25 04:41:00,
2013-04-24 23:46:00,31.8,30.3,29.97,North,359,3.0,12.0,94,0.00,,---,0.04,VWS V14.01,2013-04-25 04:46:00,
2013-04-24 23:51:00,31.6,30.1,29.97,NW,305,13.0,16.0,94,0.00,,---,0.04,VWS V14.01,2013-04-25 04:51:00,
2013-04-24 23:56:00,31.5,30.0,29.97,NNW,337,8.0,13.0,94,0.00,,---,0.04,VWS V14.01,2013-04-25 04:56:00,